Location: Voyageurs National Park
(48.5020°N, 92.9292°W)
Time: 02:11:22
(UTC-05:00)

CSL-04 Debris - Pass Details

Date: 19 January 2018
Orbit: 828 x 848 km, 99.0° (Epoch: 22 May)

Event Time Altitude Azimuth Distance (km) Brightness Sun altitude
Rises 06:53:29 0° 14° (NNE) 3,424 7.3 -10.1°
Reaches altitude 10° 06:55:52 10° 14° (NNE) 2,485 6.6 -9.7°
Maximum altitude 07:01:24 86° 287° (WNW) 858 4.2 -8.9°
Drops below altitude 10° 07:06:53 10° 199° (SSW) 2,466 6.7 -8.0°
Sets 07:09:14 0° 199° (SSW) 3,396 7.4 -7.7°
